This is the latest recevied weather packets stored in our database for station/object DB0HRC-6. If no packets are shown the sender has not sent any weather packets the latest 10 day(s).
| Time | Temp. | Humidity | Pressure | Rain* | Wind** | Luminosity | Snow |
|---|---|---|---|---|---|---|---|
| 1777720509 | 25° C | 37% | 1017 hPa | 0 mm | - | - | - |
| 1777719610 | 24.44° C | 40% | 1017.3 hPa | 0 mm | - | - | - |
| 1777718711 | 24.44° C | 43% | 1017.3 hPa | 0 mm | - | - | - |
| 1777717810 | 23.89° C | 39% | 1017.5 hPa | 0 mm | - | - | - |
| 1777716910 | 23.33° C | 43% | 1017.8 hPa | 0 mm | - | - | - |
| 1777716010 | 23.33° C | 43% | 1017.9 hPa | 0 mm | - | - | - |
| 1777715110 | 22.22° C | 45% | 1018.1 hPa | 0 mm | - | - | - |
| 1777714210 | 22.22° C | 45% | 1018.3 hPa | 0 mm | - | - | - |
| 1777713311 | 21.67° C | 47% | 1018.5 hPa | 0 mm | - | - | - |
| 1777712410 | 21.11° C | 45% | 1018.7 hPa | 0 mm | - | - | - |
| 1777711509 | 21.67° C | 47% | 1018.8 hPa | 0 mm | - | - | - |
| 1777710611 | 20.56° C | 47% | 1018.9 hPa | 0 mm | - | - | - |
| 1777709710 | 20.56° C | 52% | 1018.7 hPa | 0 mm | - | - | - |
| 1777708810 | 20.56° C | 48% | 1019 hPa | 0 mm | - | - | - |
| 1777707910 | 20° C | 52% | 1019.1 hPa | 0 mm | - | - | - |
| 1777707010 | 19.44° C | 53% | 1019.2 hPa | 0 mm | - | - | - |
| 1777706109 | 18.33° C | 55% | 1019.1 hPa | 0 mm | - | - | - |
| 1777705210 | 17.22° C | 52% | 1019.1 hPa | 0 mm | - | - | - |
| 1777704310 | 16.67° C | 54% | 1019.4 hPa | 0 mm | - | - | - |
| 1777703410 | 15.56° C | 55% | 1019.4 hPa | 0 mm | - | - | - |
| 1777702509 | 13.89° C | 65% | 1019.4 hPa | 0 mm | - | - | - |
| 1777701610 | 12.78° C | 62% | 1019.6 hPa | 0 mm | - | - | - |
| 1777700711 | 12.22° C | 63% | 1019.4 hPa | 0 mm | - | - | - |
| 1777699809 | 10.56° C | 66% | 1019.3 hPa | 0 mm | - | - | - |
| 1777698910 | 8.89° C | 70% | 1019.6 hPa | 0 mm | - | - | - |
* Rain latest hour (hover to see other rain measurements)
** Current wind speed in m/s (hover to see current wind gust speed)